User: anonymous
Location: Cranbrook Institute of Science
(42.5830°N, 83.2450°W)
Time: 11:42:23
(UTC-04:00)
Language:

CZ-4B R/B - Orbit

View from above orbital plane
View from above orbital plane
View from above satellite
View from above satellite

Ground track
Ground track

The orbit data is extracted from the following two-line orbital elements,

1 29093U 06015B   14233.45517453  .00004409  00000-0  16041-3 0  3729
2 29093 097.5190 313.1944 0090589 032.6277 095.6007 15.24932450459526
Epoch (UTC): 21 August 2014 10:55:27
Eccentricity: 0.0090589
inclination: 97.5190°
perigee height: 429 km
apogee height: 553 km
right ascension of ascending node: 313.1944°
argument of perigee: 32.6277°
revolutions per day: 15.24932450
mean anomaly at epoch: 95.6007°
orbit number at epoch: 45952

The dashed part of the orbit path shows where the satellite is in the earth's shadow,  

DLR